Regional Weather Roundup
Issued by NWS

Home | Current Version | Previous Version | Graphics & Text | Print | Product List | Glossary On
Versions: 1 2 3 4 5 6 7 8 9 10 11 12 13 14 15 16 17 18 19 20 21 22 23 24 25 26 27 28 29 30 31 32 33 34 35 36 37 38 39 40 41 42 43 44 45 46 47 48 49 50
000
ASUS43 KTOP 212159
RWRKS

WEATHER ROUNDUP FOR KANSAS
NATIONAL WEATHER SERVICE GOODLAND KS
500 PM CDT THU SEP 21 2017

NOTE:  "FAIR" INDICATES FEW OR NO CLOUDS BELOW 12,000 FEET WITH NO
SIGNIFICANT WEATHER AND/OR OBSTRUCTIONS TO VISIBILITY.

KSZ001>006-013>018-027>032-041>047-212300-
NORTHWEST KANSAS

CITY           SKY/WX    TMP DP  RH WIND       PRES   REMARKS
GOODLAND       SUNNY     94  32  11 S21G31    29.67F
HAYS           SUNNY    100  44  14 S29G45    29.66F HX  96
HILL CITY      SUNNY     99  42  14 S18G32    29.66F
RUSSELL        SUNNY     99  57  24 S30G39    29.67F HX  98
$$

KSZ061>065-074>080-084>089-212300-
SOUTHWEST KANSAS

CITY           SKY/WX    TMP DP  RH WIND       PRES   REMARKS
DODGE CITY     SUNNY    100  41  13 SW29G38   29.72F HX  95
ELKHART          N/A     92  45  19 S15         N/A
GARDEN CITY    SUNNY     97  38  13 S32G41    29.72F
GREAT BEND     MOSUNNY   98  62  30 S25G39    29.70F HX  99
LIBERAL        SUNNY     95  46  18 S29G35    29.75F
$$

KSZ066>073-081>083-090>101-212300-
SOUTHEAST KANSAS

CITY           SKY/WX    TMP DP  RH WIND       PRES   REMARKS
CHANUTE        SUNNY     90  73  57 S24G31    29.85F HX  98
COFFEYVILLE    SUNNY     91  73  55 S15G23    29.84F HX  99
HUTCHINSON     MOSUNNY   98  68  37 S29G39    29.73F HX 103
MEDICINE LODGE   N/A     97  64  33 S24G36    29.72F HX  99
NEWTON         SUNNY     94  70  45 S24G33    29.78F HX 100
WICHITA INTL   MOSUNNY   96  69  41 S23G38    29.77S HX 102
WICHITA JABRA  MOSUNNY   93  73  52 S20G28    29.78F HX 102
WINFIELD       SUNNY     92  73  53 S21G28    29.81F HX 100
$$

KSZ007>012-019>026-033>040-048>060-102>105-212300-
NORTHEAST KANSAS

CITY           SKY/WX    TMP DP  RH WIND       PRES   REMARKS
CONCORDIA      SUNNY     93  70  46 S21G35    29.70F HX  99
EMPORIA        SUNNY     90  74  59 S23G30    29.80F HX  99
LAWRENCE       MOSUNNY   90  76  63 SE18G25   29.82F HX 101
MANHATTAN      MOSUNNY   96  73  47 SE18G30   29.74F HX 105
OLATHE IND     SUNNY     89  74  60 S20G26    29.86F HX  98
OLATHE EXE     MOSUNNY   87  74  64 S22G32    29.86S HX  95
SALINA         SUNNY     99  67  35 S30G37    29.71F HX 103
TOPEKA BILLARD MOSUNNY   91  76  61 SE23G32   29.80F HX 103
TOPEKA FORBES  MOSUNNY   91  76  61 S20G28    29.81F HX 103
$$




USA.gov is the U.S. government's official web portal to all federal, state and local government web resources and services.